Location: Newark
(49.8846°N, 10.8879°E)
Time: 21:57:10
(UTC+00:00)

Envisat - Visible Passes

Search period start: 09 December 2019 00:00
Search period end: 19 December 2019 00:00
Orbit: 764 x 766 km, 98.1° (Epoch: 09 December)

Date Brightness Start Highest point End Pass type
(mag) Time Alt. Az. Time Alt. Az. Time Alt. Az.
09 Dec 5.2 05:17:52 10° NE 05:22:13 28° E 05:26:32 10° SSE visible
09 Dec 3.0 16:36:35 10° SSE 16:41:32 56° ENE 16:46:31 10° N visible
09 Dec 5.3 18:16:53 10° SW 18:20:54 23° W 18:24:57 10° NW visible
10 Dec 6.1 04:42:25 10° NE 04:45:00 14° E 04:47:34 10° ESE visible
10 Dec 3.1 06:19:39 10° NNE 06:24:47 89° ESE 06:29:52 10° SSW visible
10 Dec 3.8 16:00:39 10° ESE 16:04:59 29° ENE 16:09:21 10° N visible
10 Dec 4.1 17:38:58 10° S 17:43:50 46° W 17:48:45 10° NNW visible
11 Dec 4.3 05:43:00 10° NNE 05:47:54 44° E 05:52:45 10° S visible
11 Dec 2.9 17:01:53 10° SSE 17:06:58 89° ENE 17:12:06 10° NNW visible
11 Dec 5.9 18:44:02 10° WSW 18:46:44 14° W 18:49:26 10° NW visible
12 Dec 5.5 05:06:50 10° NE 05:10:50 23° E 05:14:47 10° SE visible
12 Dec 3.2 16:25:29 10° SE 16:30:18 46° ENE 16:35:09 10° N visible
12 Dec 5.0 18:05:10 10° SSW 18:09:31 28° W 18:13:55 10° NW visible
13 Dec 6.3 04:32:11 10° ENE 04:33:32 11° E 04:34:54 10° E visible
13 Dec 3.3 06:08:22 10° NNE 06:13:29 73° ESE 06:18:33 10° S visible
13 Dec 4.0 15:49:45 10° ESE 15:53:48 25° ENE 15:57:54 10° N visible
13 Dec 3.6 17:27:31 10° S 17:32:30 57° W 17:37:32 10° NNW visible
14 Dec 4.7 05:31:51 10° NNE 05:36:33 36° E 05:41:13 10° SSE visible
14 Dec 2.9 16:50:39 10° SSE 16:55:42 74° ENE 17:00:48 10° N visible
14 Dec 5.7 18:31:55 10° SW 18:35:18 18° W 18:38:41 10° NW visible
15 Dec 5.8 04:55:53 10° NE 04:59:25 19° E 05:02:55 10° SE visible
15 Dec 3.5 16:14:25 10° SE 16:19:05 38° ENE 16:23:46 10° N visible
15 Dec 4.6 17:53:32 10° SSW 17:58:09 35° W 18:02:48 10° NNW visible
16 Dec 3.7 05:57:07 10° NNE 06:02:10 59° E 06:07:11 10° S visible
16 Dec 3.3 17:16:09 10° S 17:21:12 70° WSW 17:26:18 10° NNW visible
16 Dec 6.2 19:00:23 10° W 19:01:11 10° W 19:01:59 10° WNW visible
17 Dec 5.1 05:20:44 10° NNE 05:25:11 30° E 05:29:37 10° SSE visible
17 Dec 3.0 16:39:27 10° SSE 16:44:27 60° ENE 16:49:28 10° N visible
17 Dec 5.4 18:20:01 10° SW 18:23:52 22° W 18:27:46 10° NW visible
18 Dec 6.0 04:45:05 10° NE 04:47:59 15° E 04:50:52 10° ESE visible
18 Dec 3.0 06:22:35 10° NNE 06:27:42 85° WNW 06:32:47 10° SSW visible
18 Dec 3.7 16:03:27 10° SE 16:07:53 32° ENE 16:12:21 10° N visible
18 Dec 4.2 17:41:59 10° S 17:46:48 42° W 17:51:38 10° NNW visible
